Winner, SD

8:04 PM CDT on April 21, 2018 (GMT -0500)
Winner

Weather History for KICR - August, 2013

Change the Weather History Date:

Saturday, August 24, 2013

  Actual Average Record
Temperature  
Mean Temperature 88 °F 73 °F  
Max Temperature 101 °F 86 °F 101 °F (2013)
Min Temperature 75 °F 60 °F 47 °F (2015)
Degree Days  
Heating Degree Days 0 0  
Month to date heating degree days 0 0  
Since 1 June heating degree days 60 59  
Since 1 July heating degree days 7 5  
Cooling Degree Days 23 8  
Month to date cooling degree days 194 247  
Year to date cooling degree days 653 753  
Since 1 June cooling degree days 614 723  
Growing Degree Days 38 (Base 50)    
Moisture  
Dew Point 64 °F    
Average Humidity 53    
Maximum Humidity 82    
Minimum Humidity 23    
Precipitation  
Precipitation 0.00 in 0.05 in 0.10 in (2007)
Month to date precipitation 2.49 1.93  
Year to date precipitation 15.99 16.61  
Sea Level Pressure  
Sea Level Pressure 29.79 in    
Wind  
Wind Speed 17 mph (South)    
Max Wind Speed 24 mph    
Max Gust Speed 31 mph    
Visibility 10 miles    
Events      
T = Trace of Precipitation, MM = Missing Value Source: NWS Daily Summary

Daily Weather History Graph

Daily Weather History Graph

Search for Another Location

Airport or City:

Astronomy

Aug. 24, 2013 Rise Set
Actual Time 6:54 AM CDT 8:27 PM CDT
Civil Twilight 6:24 AM CDT 8:57 PM CDT
Nautical Twilight 5:48 AM CDT 9:33 PM CDT
Astronomical Twilight 5:09 AM CDT 10:12 PM CDT
Moon 10:13 PM CDT (8/24) 11:05 AM CDT (8/24)
Length of Visible Light 14h 32m
Length of Day
13h 32m
Waning Gibbous, 84% of the Moon is Illuminated
Aug 24
Waning Gibbous
Aug 28
Last Quarter
Sep 5
New
Sep 12
First Quarter
Sep 19
Full

Hourly Weather History & Observations

Time (CDT) Temp. Heat Index Dew Point Humidity Pressure Visibility Wind Dir Wind Speed Gust Speed Precip Events Conditions
12:53 AM 77.0 °F - 70.0 °F 79% 29.81 in 10.0 mi SSE 13.8 mph - N/A   Clear
1:53 AM 75.9 °F - 70.0 °F 82% 29.81 in 10.0 mi SSE 15.0 mph 23.0 mph N/A   Clear
2:53 AM 75.9 °F - 69.1 °F 79% 29.78 in 10.0 mi South 16.1 mph - N/A   Clear
3:53 AM 75.9 °F - 69.1 °F 79% 29.78 in 10.0 mi South 19.6 mph - N/A   Clear
4:53 AM 77.0 °F - 66.9 °F 71% 29.76 in 10.0 mi South 21.9 mph 28.8 mph N/A   Mostly Cloudy
5:53 AM 77.0 °F - 64.9 °F 66% 29.75 in 10.0 mi South 21.9 mph 27.6 mph N/A   Clear
6:53 AM 75.9 °F - 64.0 °F 67% 29.75 in 10.0 mi South 17.3 mph - N/A   Clear
7:53 AM 75.0 °F - 62.1 °F 64% 29.77 in 10.0 mi SSW 17.3 mph 23.0 mph N/A   Clear
8:53 AM 77.0 °F - 61.0 °F 58% 29.77 in 10.0 mi SSW 17.3 mph 24.2 mph N/A   Clear
9:53 AM 80.1 °F 80.9 °F 60.1 °F 50% 29.79 in 10.0 mi SSW 16.1 mph 24.2 mph N/A   Clear
10:53 AM 84.0 °F 83.8 °F 59.0 °F 43% 29.81 in 10.0 mi SSW 16.1 mph - N/A   Clear
11:53 AM 89.1 °F 90.0 °F 63.0 °F 42% 29.80 in 10.0 mi South 16.1 mph 23.0 mph N/A   Clear
12:53 PM 93.0 °F 94.2 °F 63.0 °F 37% 29.80 in 10.0 mi SSW 17.3 mph 24.2 mph N/A   Clear
1:53 PM 96.1 °F 96.0 °F 60.1 °F 30% 29.80 in 10.0 mi SSW 19.6 mph 25.3 mph N/A   Clear
2:53 PM 98.1 °F 98.6 °F 61.0 °F 29% 29.79 in 10.0 mi SSW 17.3 mph 26.5 mph N/A   Clear
3:53 PM 100.0 °F 98.8 °F 55.9 °F 23% 29.78 in 10.0 mi South 19.6 mph 26.5 mph N/A   Clear
4:53 PM 99.0 °F 97.7 °F 55.9 °F 24% 29.77 in 10.0 mi South 17.3 mph 28.8 mph N/A   Clear
5:53 PM 97.0 °F 98.3 °F 63.0 °F 32% 29.78 in 10.0 mi South 17.3 mph 26.5 mph N/A   Clear
6:53 PM 93.9 °F 96.1 °F 64.9 °F 38% 29.78 in 10.0 mi SSE 16.1 mph - N/A   Clear
7:53 PM 90.0 °F 92.8 °F 66.9 °F 46% 29.78 in 10.0 mi SSE 11.5 mph - N/A   Clear
8:53 PM 84.9 °F 88.2 °F 68.0 °F 57% 29.79 in 10.0 mi SSE 9.2 mph - N/A   Clear
9:53 PM 84.0 °F 87.8 °F 69.1 °F 61% 29.80 in 10.0 mi SSE 15.0 mph 19.6 mph N/A   Clear
10:53 PM 84.0 °F 87.0 °F 68.0 °F 58% 29.81 in 10.0 mi South 18.4 mph 27.6 mph N/A   Clear
11:53 PM 82.9 °F 85.0 °F 66.0 °F 56% 29.81 in 10.0 mi South 18.4 mph 26.5 mph N/A   Clear